New Philadelphia, OH

7:56 AM EDT on August 19, 2017 (GMT -0400)
Clever

Weather History for KPHD - June, 2013

Change the Weather History Date:

Thursday, June 13, 2013

  Actual Average Record
Temperature  
Mean Temperature 66 °F 68 °F  
Max Temperature 73 °F 80 °F 94 °F (1961)
Min Temperature 59 °F 57 °F 42 °F (1979)
Degree Days  
Heating Degree Days 0 1  
Month to date heating degree days 20 26  
Since 1 June heating degree days 20 26  
Since 1 July heating degree days 5605 5635  
Cooling Degree Days 1 4  
Month to date cooling degree days 40 46  
Year to date cooling degree days 138 89  
Since 1 June cooling degree days 40 46  
Growing Degree Days 18 (Base 50)    
Moisture  
Dew Point 60 °F    
Average Humidity 68    
Maximum Humidity 87    
Minimum Humidity 49    
Precipitation  
Precipitation 0.70 in 0.12 in 2.46 in (2004)
Month to date precipitation 3.63 1.98  
Year to date precipitation 13.67 17.58  
Sea Level Pressure  
Sea Level Pressure 29.69 in    
Wind  
Wind Speed 8 mph (NW)    
Max Wind Speed 29 mph    
Max Gust Speed 41 mph    
Visibility 9 miles    
Events Rain , Thunderstorm    
T = Trace of Precipitation, MM = Missing Value Source: NWS Daily Summary

Daily Weather History Graph

Daily Weather History Graph

Search for Another Location

Airport or City:

Trip Planner

Search our weather history database for the weather conditions in past years. The results will help you decide how hot, cold, wet, or windy it might be!

Date:

Astronomy

Jun. 13, 2013 Rise Set
Actual Time 5:54 AM EDT 8:57 PM EDT
Civil Twilight 5:21 AM EDT 9:30 PM EDT
Nautical Twilight 4:39 AM EDT 10:12 PM EDT
Astronomical Twilight 3:50 AM EDT 11:01 PM EDT
Moon 10:30 AM EDT (6/13) No Moon Set
Length of Visible Light 16h 08m
Length of Day
15h 02m
Waxing Crescent, 21% of the Moon is Illuminated
Jun 13
Waxing Crescent
Jun 16
First Quarter
Jun 23
Full
Jun 30
Last Quarter
Jul 8
New

Hourly Weather History & Observations

Time (EDT) Temp. Dew Point Humidity Pressure Visibility Wind Dir Wind Speed Gust Speed Precip Events Conditions
12:44 AM 68.0 °F 62.6 °F 83% 29.73 in 10.0 mi SE 5.8 mph 16.1 mph 0.01 in Thunderstorm Scattered Clouds
12:53 AM 68.0 °F 63.0 °F 84% 29.71 in 10.0 mi SE 6.9 mph - 0.01 in Thunderstorm Partly Cloudy
1:05 AM 66.2 °F 62.6 °F 88% 29.72 in 10.0 mi SSE 9.2 mph - N/A   Scattered Clouds
1:16 AM 66.2 °F 62.6 °F 88% 29.71 in 10.0 mi SSE 8.1 mph - N/A Thunderstorm Scattered Clouds
1:53 AM 66.0 °F 63.0 °F 90% 29.65 in 10.0 mi SE 4.6 mph - 0.14 in Rain , Thunderstorm Light Thunderstorms and Rain
2:27 AM 66.2 °F 64.4 °F 94% 29.64 in 8.0 mi SE 3.5 mph - 0.00 in Rain Light Rain
2:40 AM 66.2 °F 64.4 °F 94% 29.64 in 10.0 mi South 3.5 mph - 0.00 in Thunderstorm Overcast
2:53 AM 68.0 °F 64.9 °F 90% 29.61 in 10.0 mi SSE 5.8 mph - 0.00 in Thunderstorm Mostly Cloudy
3:02 AM 69.8 °F 64.4 °F 83% 29.72 in 2.0 mi WNW 28.8 mph 41.4 mph 0.14 in Rain , Thunderstorm Light Thunderstorms and Rain
3:05 AM 68.0 °F 64.4 °F 88% 29.73 in 1.0 mi West 16.1 mph 41.4 mph 0.21 in Rain , Thunderstorm Heavy Thunderstorms and Rain
3:09 AM 66.2 °F 64.4 °F 94% 29.70 in 0.8 mi WNW 5.8 mph 41.4 mph 0.30 in Rain , Thunderstorm Heavy Thunderstorms and Rain
3:14 AM 66.2 °F 64.4 °F 94% 29.70 in 1.2 mi WNW 6.9 mph 17.3 mph 0.34 in Rain , Thunderstorm Heavy Thunderstorms and Rain
3:19 AM 66.2 °F 64.4 °F 94% 29.70 in 3.0 mi West 6.9 mph 17.3 mph 0.35 in Rain , Thunderstorm Light Thunderstorms and Rain
3:42 AM 66.2 °F 64.4 °F 94% 29.68 in 4.0 mi Calm Calm - 0.43 in Rain Rain
3:53 AM 66.9 °F 64.0 °F 90% 29.64 in 5.0 mi Calm Calm - 0.45 in Rain Light Rain
4:53 AM 66.0 °F 63.0 °F 90% 29.59 in 10.0 mi South 5.8 mph - 0.10 in Rain Light Rain
5:53 AM 66.0 °F 62.1 °F 87% 29.52 in 10.0 mi SSW 4.6 mph - 0.01 in   Partly Cloudy
6:53 AM 66.0 °F 63.0 °F 90% 29.61 in 10.0 mi West 3.5 mph - N/A   Mostly Cloudy
7:53 AM 66.9 °F 63.0 °F 87% 29.61 in 10.0 mi Variable 4.6 mph - N/A   Mostly Cloudy
8:23 AM 66.2 °F 62.6 °F 88% 29.64 in 10.0 mi Variable 5.8 mph - N/A   Mostly Cloudy
8:53 AM 68.0 °F 63.0 °F 84% 29.61 in 10.0 mi WNW 4.6 mph - N/A   Overcast
9:53 AM 69.1 °F 63.0 °F 81% 29.62 in 10.0 mi WNW 10.4 mph - N/A   Overcast
10:35 AM 69.8 °F 64.4 °F 83% 29.64 in 10.0 mi WNW 10.4 mph 16.1 mph 0.00 in   Overcast
10:51 AM 69.8 °F 64.4 °F 83% 29.65 in 10.0 mi NW 8.1 mph - 0.00 in   Overcast
10:53 AM 69.1 °F 64.0 °F 84% 29.64 in 10.0 mi WNW 10.4 mph - 0.00 in   Overcast
11:44 AM 66.2 °F 60.8 °F 83% 29.68 in 10.0 mi NNW 11.5 mph 19.6 mph N/A   Overcast
11:53 AM 66.0 °F 60.1 °F 81% 29.67 in 10.0 mi North 6.9 mph - N/A   Overcast
12:33 PM 66.2 °F 59.0 °F 78% 29.68 in 10.0 mi North 9.2 mph 18.4 mph N/A   Overcast
12:53 PM 64.9 °F 59.0 °F 81% 29.68 in 10.0 mi NW 10.4 mph 16.1 mph N/A   Overcast
1:14 PM 64.4 °F 59.0 °F 83% 29.70 in 10.0 mi NNW 10.4 mph 21.9 mph N/A   Overcast
1:34 PM 66.2 °F 59.0 °F 78% 29.70 in 10.0 mi NNW 10.4 mph 19.6 mph N/A   Overcast
1:53 PM 66.0 °F 57.9 °F 75% 29.70 in 10.0 mi NNW 11.5 mph 20.7 mph 0.00 in Rain Light Rain
2:44 PM 68.0 °F 57.2 °F 68% 29.73 in 10.0 mi NNW 12.7 mph - 0.00 in   Overcast
2:53 PM 68.0 °F 57.9 °F 70% 29.72 in 10.0 mi NNW 13.8 mph 20.7 mph 0.00 in   Overcast
3:53 PM 71.1 °F 57.9 °F 63% 29.73 in 10.0 mi NNW 11.5 mph 18.4 mph N/A   Overcast
4:53 PM 72.0 °F 57.0 °F 59% 29.74 in 10.0 mi NNW 17.3 mph 28.8 mph N/A   Mostly Cloudy
5:53 PM 72.0 °F 54.0 °F 53% 29.75 in 10.0 mi NNW 16.1 mph 25.3 mph N/A   Partly Cloudy
6:53 PM 72.0 °F 52.0 °F 49% 29.76 in 10.0 mi NNW 13.8 mph 25.3 mph N/A   Clear
7:53 PM 71.1 °F 52.0 °F 51% 29.79 in 10.0 mi NNW 9.2 mph - N/A   Clear
8:53 PM 68.0 °F 48.9 °F 50% 29.82 in 10.0 mi NNW 9.2 mph 20.7 mph N/A   Clear
9:53 PM 64.9 °F 50.0 °F 58% 29.84 in 10.0 mi North 9.2 mph - N/A   Clear
10:53 PM 63.0 °F 52.0 °F 67% 29.85 in 10.0 mi NNW 5.8 mph - N/A   Clear
11:53 PM 62.1 °F 53.1 °F 72% 29.86 in 10.0 mi NNW 4.6 mph - N/A   Clear